Location: Ellerstadt
(49.4644°N, 8.2615°E)
Time: 19:49:09
(UTC+00:00)

Vanguard 1 - Pass Details

Date: 22 June 2021
Orbit: 651 x 3832 km, 34.2° (Epoch: 27 July)

Event Time Altitude Azimuth Distance (km) Brightness Sun altitude
Rises 22:49:57 0° 261° (W) 7,966 14.7 -16.6°
Reaches altitude 10° 22:55:55 10° 256° (WSW) 6,829 14.3 -16.7°
Maximum altitude 23:15:30 46° 193° (SSW) 3,570 12.4 -17.0°
Drops below altitude 10° 23:27:51 10° 126° (SE) 4,441 13.1 -17.1°
Sets 23:30:49 0° 120° (ESE) 5,085 13.4 -17.1°
